DW0331 Weather Reports


Display with metric or nautical units.
time (UTC)temp
F
wind
direction
speed
MPH
gust
MPH
rain 1hr
in
rain 24hr
in
rain mn
in
humidity
%
barometer
mb
20260510041009 52 358 1.0 10.0 0.00 0.15 0.00 92 1003.9
20260510040012 52 1 1.0 13.0 0.00 0.15 0.00 91 1003.8
20260510035009 52 358 1.0 9.0 0.00 0.15 0.15 91 1003.6
20260510034010 52 358 1.0 15.0 0.01 0.15 0.15 91 1003.4
20260510033009 52 357 1.0 10.0 0.01 0.15 0.15 91 1003.1
20260510032009 52 1 1.0 14.0 0.01 0.15 0.15 91 1003.1
20260510031009 52 359 2.0 14.0 0.02 0.15 0.15 92 1003.2
20260510030009 52 359 1.0 6.0 0.03 0.15 0.15 92 1003.1
20260510023009 53 359 4.0 18.0 0.14 0.14 0.14 91 1002.8
20260510022009 53 359 10.0 19.0 0.14 0.14 0.14 91 1002.7
20260510021009 54 359 5.0 20.0 0.13 0.13 0.13 92 1002.8
20260510015009 56 234 2.0 13.0 0.10 0.10 0.10 89 1003.1
20260510014009 57 198 2.0 15.0 0.01 0.01 0.01 83 1002.5
20260510013009 59 199 4.0 15.0 0.00 0.00 0.00 78 1001.7
20260510012009 59 194 2.0 14.0 0.00 0.00 0.00 75 1001.7
20260510010009 59 193 2.0 13.0 0.00 0.00 0.00 74 1001.7
20260510005009 59 187 1.0 14.0 0.00 0.00 0.00 75 1001.9
20260510003009 60 190 1.0 14.0 0.00 0.00 0.00 74 1001.7
20260510002009 60 192 1.0 13.0 0.00 0.00 0.00 73 1001.7
20260510000009 60 181 1.0 10.0 0.00 0.00 0.00 72 1001.8
20260509235009 60 0 0.0 9.0 0.00 0.00 0.00 72 1001.9
20260509234009 60 0 0.0 9.0 0.00 0.00 0.00 71 1002.2
20260509232009 60 0 0.0 6.0 0.00 0.00 0.00 71 1002.5
20260509231009 60 0 0.0 5.0 0.00 0.00 0.00 71 1002.6
20260509230009 60 196 1.0 9.0 0.00 0.00 0.00 70 1002.7
20260509224009 61 197 7.0 14.0 0.00 0.00 0.00 70 1002.9
20260509222009 61 194 4.0 16.0 0.00 0.00 0.00 68 1002.9
20260509221009 61 210 7.0 16.0 0.00 0.00 0.00 67 1002.7
20260509220009 61 188 11.0 19.0 0.00 0.00 0.00 66 1002.6
20260509215009 61 197 10.0 21.0 0.00 0.00 0.00 66 1002.6
20260509214009 60 198 10.0 20.0 0.00 0.00 0.00 62 1002.6
20260509213009 61 208 10.0 18.0 0.00 0.00 0.00 62 1002.6
20260509211009 61 200 13.0 22.0 0.00 0.00 0.00 61 1002.9
20260509210010 61 206 14.0 22.0 0.00 0.00 0.00 63 1003.0
20260509205009 61 203 15.0 22.0 0.00 0.00 0.00 63 1003.0
20260509204009 61 202 14.0 20.0 0.00 0.00 0.00 62 1003.0
20260509203009 62 195 10.0 18.0 0.00 0.00 0.00 59 1003.0
20260509202008 62 205 11.0 18.0 0.00 0.00 0.00 60 1003.1
20260509201009 62 209 9.0 18.0 0.00 0.00 0.00 62 1003.2
20260509195009 62 195 14.0 24.0 0.00 0.00 0.00 60 1003.5
20260509194008 62 200 13.0 20.0 0.00 0.00 0.00 58 1003.5
20260509193009 62 197 12.0 24.0 0.00 0.00 0.00 51 1003.6
20260509192009 62 207 10.0 22.0 0.00 0.00 0.00 55 1003.8
20260509191009 62 202 13.0 23.0 0.00 0.00 0.00 59 1003.9
20260509185008 62 199 10.0 18.0 0.00 0.00 0.00 60 1004.0
20260509184009 61 198 12.0 20.0 0.00 0.00 0.00 61 1004.1
20260509183009 61 216 11.0 20.0 0.00 0.00 0.00 61 1004.3
20260509182009 61 203 12.0 20.0 0.00 0.00 0.00 60 1004.5
20260509181010 61 199 7.0 16.0 0.00 0.00 0.00 63 1004.6
20260509180009 61 193 8.0 20.0 0.00 0.00 0.00 60 1004.6
20260509175009 61 198 9.0 19.0 0.00 0.00 0.00 56 1004.7
20260509174009 61 193 6.0 18.0 0.00 0.00 0.00 57 1004.7
20260509173009 61 195 5.0 18.0 0.00 0.00 0.00 55 1004.8
20260509172009 61 204 8.0 20.0 0.00 0.00 0.00 54 1004.9
20260509171009 61 200 8.0 17.0 0.00 0.00 0.00 51 1005.1
20260509170009 61 190 5.0 17.0 0.00 0.00 0.00 55 1005.2
20260509165009 61 195 4.0 13.0 0.00 0.00 0.00 49 1005.4
20260509163009 60 197 8.0 19.0 0.00 0.00 0.00 48 1005.7
20260509162009 60 195 8.0 17.0 0.00 0.00 0.00 46 1005.8
20260509161009 60 195 5.0 16.0 0.00 0.00 0.00 52 1006.0
20260509160009 60 194 5.0 14.0 0.00 0.00 0.00 50 1006.2
20260509155008 60 196 3.0 14.0 0.00 0.00 0.00 51 1006.3
20260509154009 59 200 8.0 16.0 0.00 0.00 0.00 49 1006.5
20260509153009 59 202 3.0 13.0 0.00 0.00 0.00 52 1006.7
20260509152009 58 208 7.0 16.0 0.00 0.00 0.00 50 1006.9
20260509151009 58 206 4.0 18.0 0.00 0.00 0.00 52 1007.0
20260509150009 58 192 1.0 10.0 0.00 0.00 0.00 56 1007.1
20260509145009 57 181 2.0 13.0 0.00 0.00 0.00 56 1007.2
20260509144009 57 198 3.0 13.0 0.00 0.00 0.00 57 1007.3
20260509143009 56 185 1.0 14.0 0.00 0.00 0.00 55 1007.3
20260509142008 56 0 0.0 5.0 0.00 0.00 0.00 58 1007.4
20260509140009 55 186 3.0 12.0 0.00 0.00 0.00 57 1007.4
20260509135009 54 198 1.0 10.0 0.00 0.00 0.00 59 1007.4
20260509134009 54 197 6.0 14.0 0.00 0.00 0.00 58 1007.5
20260509133009 53 193 1.0 11.0 0.00 0.00 0.00 60 1007.6
20260509132009 52 185 2.0 10.0 0.00 0.00 0.00 63 1007.8
20260509131008 51 0 0.0 11.0 0.00 0.00 0.00 63 1007.9
20260509130009 50 0 0.0 0.0 0.00 0.00 0.00 66 1007.9
20260509124008 47 0 0.0 0.0 0.00 0.00 0.00 70 1007.9
20260509123009 46 0 0.0 0.0 0.00 0.00 0.00 72 1008.0
20260509122009 45 0 0.0 0.0 0.00 0.00 0.00 75 1008.1
20260509120009 43 0 0.0 0.0 0.00 0.00 0.00 77 1008.2
20260509115009 43 0 0.0 0.0 0.00 0.00 0.00 76 1008.3
20260509114009 42 0 0.0 0.0 0.00 0.00 0.00 78 1008.2
20260509113009 42 0 0.0 0.0 0.00 0.00 0.00 83 1008.3
20260509112008 41 0 0.0 0.0 0.00 0.00 0.00 87 1008.2
20260509110009 40 0 0.0 0.0 0.00 0.00 0.00 92 1008.1
20260509105008 39 0 0.0 0.0 0.00 0.00 0.00 93 1008.1
20260509104008 39 0 0.0 0.0 0.00 0.00 0.00 94 1007.9
20260509103009 39 0 0.0 0.0 0.00 0.00 0.00 94 1007.9
20260509102008 38 0 0.0 0.0 0.00 0.00 0.00 93 1007.8
20260509100009 38 0 0.0 0.0 0.00 0.00 0.00 92 1007.7
20260509095008 38 0 0.0 0.0 0.00 0.00 0.00 92 1007.8
20260509094009 38 0 0.0 0.0 0.00 0.00 0.00 93 1007.9
20260509091009 38 0 0.0 0.0 0.00 0.00 0.00 92 1007.9
20260509090009 38 0 0.0 0.0 0.00 0.00 0.00 91 1007.9
20260509085008 39 0 0.0 0.0 0.00 0.00 0.00 91 1008.0
20260509084008 39 0 0.0 0.0 0.00 0.00 0.00 89 1008.0
20260509083009 40 0 0.0 0.0 0.00 0.00 0.00 88 1008.1
20260509082008 40 0 0.0 0.0 0.00 0.00 0.00 88 1008.0
20260509081008 40 0 0.0 0.0 0.00 0.00 0.00 88 1008.1
20260509080009 40 0 0.0 0.0 0.00 0.00 0.00 89 1008.2
20260509075008 40 0 0.0 0.0 0.00 0.00 0.00 90 1008.2
20260509074008 40 0 0.0 0.0 0.00 0.00 0.00 89 1008.3
20260509073009 40 0 0.0 0.0 0.00 0.00 0.00 89 1008.3
20260509072008 40 0 0.0 0.0 0.00 0.00 0.00 88 1008.3
20260509071008 41 0 0.0 0.0 0.00 0.00 0.00 88 1008.4
20260509070009 41 0 0.0 0.0 0.00 0.00 0.00 87 1008.6
20260509065008 41 0 0.0 0.0 0.00 0.00 0.00 86 1008.5
20260509063008 41 0 0.0 0.0 0.00 0.00 0.00 87 1008.7
20260509061009 42 0 0.0 0.0 0.00 0.00 0.00 86 1008.7
20260509060008 42 0 0.0 0.0 0.00 0.00 0.00 85 1008.8
20260509055009 42 0 0.0 5.0 0.00 0.00 0.00 85 1008.9
20260509053009 41 0 0.0 0.0 0.00 0.00 0.00 86 1009.1
20260509052008 41 0 0.0 0.0 0.00 0.00 0.00 86 1009.2
20260509051009 41 0 0.0 0.0 0.00 0.00 0.00 87 1009.3
20260509050008 41 0 0.0 0.0 0.00 0.00 0.00 87 1009.3
20260509045008 41 0 0.0 0.0 0.00 0.00 0.00 86 1009.2
20260509044008 41 0 0.0 0.0 0.00 0.00 0.00 85 1009.3
20260509043009 40 0 0.0 0.0 0.00 0.00 0.00 85 1009.3